Location: Keppel Henge
(44.7900°N, 80.9447°W)
Time: 20:58:00
(UTC-05:00)

OTV 5 (USA 277) - Visible Passes

Search period start: 23 January 2018 00:00
Search period end: 02 February 2018 00:00
Orbit: 404 x 417 km, 43.0° (Epoch: 07 September)

Date Brightness Start Highest point End Pass type
(mag) Time Alt. Az. Time Alt. Az. Time Alt. Az.
23 Jan ? 19:27:24 10° SW 19:29:15 24° SSW 19:29:15 24° SSW visible
24 Jan ? 18:36:43 10° SSW 18:39:28 23° SSE 18:40:43 19° ESE visible
24 Jan ? 20:13:08 10° WSW 20:13:29 12° WSW 20:13:29 12° WSW visible
25 Jan ? 19:22:10 10° WSW 19:24:54 44° SSW 19:24:54 44° SSW visible
26 Jan ? 18:31:15 10° SW 18:34:26 40° SSE 18:36:18 20° ESE visible
26 Jan ? 20:08:12 10° W 20:09:03 16° W 20:09:03 16° W visible
27 Jan ? 19:17:10 10° WSW 19:20:26 63° S 19:20:26 63° S visible
28 Jan ? 18:26:10 10° WSW 18:29:29 58° S 18:31:48 18° E visible
28 Jan ? 20:03:21 10° W 20:04:34 20° W 20:04:34 20° W visible
29 Jan ? 19:12:17 10° W 19:15:38 63° S 19:15:58 58° SSE visible
30 Jan ? 18:21:14 10° W 18:24:35 65° S 18:27:23 14° E visible
30 Jan ? 19:58:33 10° W 20:00:09 23° WSW 20:00:09 23° WSW visible
31 Jan ? 19:07:27 10° W 19:10:42 47° SSW 19:11:38 36° SSE visible
01 Feb ? 18:16:22 10° W 18:19:41 56° S 18:23:00 10° ESE visible
01 Feb ? 19:53:57 10° W 19:55:58 21° SW 19:55:58 21° SW visible
